,,PA_Meas_PMT16A,,PR_Meas_QMR101_102,,RH_Meas_QMH101,,SR_Meas_QMS101,,TA_Meas_QMH101,,GenWind,,GenWind,
time,status,PA,status,PR,status,RH,status,SR,status,TA,status,DirAvg,status,SpdAvg,
2012-09-28, 00:00:04,VALID,919.56,VALID,0,VALID,96.1465,VALID,0,VALID,19.7823,VALID,7,VALID,0,
2012-09-28, 00:01:04,VALID,919.56,VALID,0,VALID,96.116,VALID,0,VALID,19.7628,VALID,7,VALID,0,
2012-09-28, 00:02:04,VALID,919.545,VALID,0,VALID,96.0855,VALID,0.107441,VALID,19.7433,VALID,7,VALID,0,
2012-09-28, 00:03:04,VALID,919.524,VALID,0,VALID,96.1084,VALID,0,VALID,19.7253,VALID,7,VALID,0,
2012-09-28, 00:04:04,VALID,919.519,VALID,0,VALID,96.1236,VALID,0,VALID,19.7463,VALID,7,VALID,0,
2012-09-28, 00:05:04,VALID,919.478,VALID,0,VALID,96.1313,VALID,0,VALID,19.7058,VALID,7,VALID,0,
2012-09-28, 00:06:04,VALID,919.484,VALID,0,VALID,96.1236,VALID,0,VALID,19.7058,VALID,7,VALID,0,
2012-09-28, 00:07:04,VALID,919.475,VALID,0,VALID,96.1313,VALID,0,VALID,19.7058,VALID,7,VALID,0,
2012-09-28, 00:08:04,VALID,919.459,VALID,0,VALID,96.1236,VALID,0,VALID,19.7268,VALID,7,VALID,0,
2012-09-28, 00:09:04,VALID,919.479,VALID,0,VALID,96.1084,VALID,0,VALID,19.7073,VALID,7,VALID,0,
2012-09-28, 00:10:04,VALID,919.498,VALID,0,VALID,96.1008,VALID,0,VALID,19.6863,VALID,7,VALID,0,
2012-09-28, 00:11:04,VALID,919.512,VALID,0,VALID,96.1541,VALID,0,VALID,19.6863,VALID,7,VALID,0,
2012-09-28, 00:12:04,VALID,919.488,VALID,0,VALID,96.116,VALID,0,VALID,19.7073,VALID,7,VALID,0,
2012-09-28, 00:13:04,VALID,919.482,VALID,0,VALID,96.1465,VALID,0,VALID,19.6863,VALID,7,VALID,0,
2012-09-28, 00:14:04,VALID,919.488,VALID,0,VALID,96.1236,VALID,0,VALID,19.7073,VALID,7,VALID,0,
2012-09-28, 00:15:04,VALID,919.455,VALID,0,VALID,96.0855,VALID,0,VALID,19.6878,VALID,7,VALID,0,
2012-09-28, 00:16:04,VALID,919.38,VALID,0,VALID,96.0703,VALID,0,VALID,19.6668,VALID,7,VALID,0,
2012-09-28, 00:17:04,VALID,919.376,VALID,0,VALID,96.0703,VALID,0,VALID,19.6683,VALID,7,VALID,0,
2012-09-28, 00:18:04,VALID,919.36,VALID,0,VALID,96.0932,VALID,0,VALID,19.6473,VALID,354,VALID,0,
2012-09-28, 00:19:04,VALID,919.351,VALID,0,VALID,96.1236,VALID,0.107441,VALID,19.6458,VALID,354,VALID,0,
2012-09-28, 00:20:04,VALID,919.349,VALID,0,VALID,96.1313,VALID,0,VALID,19.6263,VALID,354,VALID,0,
2012-09-28, 00:21:04,VALID,919.349,VALID,0,VALID,96.1313,VALID,0.107441,VALID,19.6083,VALID,354,VALID,0,
2012-09-28, 00:22:04,VALID,919.341,VALID,0,VALID,96.1389,VALID,0,VALID,19.6278,VALID,354,VALID,0,
2012-09-28, 00:23:04,VALID,919.308,VALID,0,VALID,96.1465,VALID,0,VALID,19.6083,VALID,354,VALID,0,
2012-09-28, 00:24:04,VALID,919.332,VALID,0,VALID,96.177,VALID,0,VALID,19.6068,VALID,354,VALID,0,
2012-09-28, 00:25:04,VALID,919.295,VALID,0,VALID,96.1313,VALID,0,VALID,19.6068,VALID,354,VALID,0,
2012-09-28, 00:26:04,VALID,919.282,VALID,0,VALID,96.1084,VALID,0,VALID,19.6083,VALID,354,VALID,0,
2012-09-28, 00:27:04,VALID,919.271,VALID,0,VALID,96.0932,VALID,0,VALID,19.5678,VALID,354,VALID,0,
2012-09-28, 00:28:04,VALID,919.25,VALID,0,VALID,96.1465,VALID,0,VALID,19.5873,VALID,354,VALID,0,
2012-09-28, 00:29:04,VALID,919.241,VALID,0,VALID,96.1465,VALID,0.107441,VALID,19.5678,VALID,354,VALID,0,
2012-09-28, 00:30:04,VALID,919.224,VALID,0,VALID,96.1389,VALID,0,VALID,19.5678,VALID,354,VALID,0,
2012-09-28, 00:31:04,VALID,919.186,VALID,0,VALID,96.1313,VALID,0,VALID,19.5888,VALID,354,VALID,0,
2012-09-28, 00:32:04,VALID,919.198,VALID,0,VALID,96.1541,VALID,0.107441,VALID,19.5483,VALID,354,VALID,0,
2012-09-28, 00:33:04,VALID,919.171,VALID,0,VALID,96.1618,VALID,0,VALID,19.5483,VALID,354,VALID,0,
2012-09-28, 00:34:04,VALID,919.181,VALID,0,VALID,96.1618,VALID,0,VALID,19.5693,VALID,354,VALID,0,
2012-09-28, 00:35:04,VALID,919.178,VALID,0,VALID,96.1923,VALID,0,VALID,19.5483,VALID,354,VALID,0,
2012-09-28, 00:36:04,VALID,919.154,VALID,0,VALID,96.177,VALID,0,VALID,19.5678,VALID,354,VALID,0,
2012-09-28, 00:37:04,VALID,919.15,VALID,0,VALID,96.1313,VALID,0,VALID,19.5693,VALID,354,VALID,0,
2012-09-28, 00:38:04,VALID,919.114,VALID,0,VALID,96.1694,VALID,0,VALID,19.5288,VALID,28,VALID,0,
2012-09-28, 00:39:04,VALID,919.111,VALID,0,VALID,96.1236,VALID,0,VALID,19.5288,VALID,25,VALID,0,
2012-09-28, 00:40:04,VALID,919.105,VALID,0,VALID,96.1236,VALID,0,VALID,19.5093,VALID,25,VALID,0,
2012-09-28, 00:41:04,VALID,919.134,VALID,0,VALID,96.177,VALID,0.107441,VALID,19.5288,VALID,25,VALID,0,
2012-09-28, 00:42:04,VALID,919.101,VALID,0,VALID,96.1999,VALID,0,VALID,19.5693,VALID,25,VALID,0,
2012-09-28, 00:43:04,VALID,919.098,VALID,0,VALID,96.2228,VALID,0,VALID,19.5498,VALID,25,VALID,0,
2012-09-28, 00:44:04,VALID,919.099,VALID,0,VALID,96.238,VALID,0,VALID,19.5498,VALID,25,VALID,0,
2012-09-28, 00:45:04,VALID,919.084,VALID,0,VALID,96.238,VALID,0,VALID,19.5693,VALID,25,VALID,0,
2012-09-28, 00:46:04,VALID,919.11,VALID,0,VALID,96.2609,VALID,0,VALID,19.5693,VALID,25,VALID,0,
2012-09-28, 00:47:04,VALID,919.072,VALID,0,VALID,96.2228,VALID,0,VALID,19.5498,VALID,25,VALID,0,
2012-09-28, 00:48:04,VALID,919.014,VALID,0,VALID,96.238,VALID,0,VALID,19.5303,VALID,25,VALID,0,
2012-09-28, 00:49:04,VALID,919.028,VALID,0,VALID,96.2685,VALID,0,VALID,19.5288,VALID,25,VALID,0,
2012-09-28, 00:50:04,VALID,919.021,VALID,0,VALID,96.1999,VALID,0,VALID,19.5288,VALID,25,VALID,0,
2012-09-28, 00:51:04,VALID,919.034,VALID,0,VALID,96.1999,VALID,0,VALID,19.5288,VALID,25,VALID,0,
2012-09-28, 00:52:04,VALID,919.079,VALID,0,VALID,96.1923,VALID,0,VALID,19.5288,VALID,113,VALID,0,
2012-09-28, 00:53:04,VALID,919.083,VALID,0,VALID,96.1694,VALID,0.107441,VALID,19.5108,VALID,149,VALID,0,
2012-09-28, 00:54:04,VALID,919.071,VALID,0,VALID,96.1923,VALID,0,VALID,19.4898,VALID,149,VALID,0,
2012-09-28, 00:55:04,VALID,919.077,VALID,0,VALID,96.1694,VALID,0,VALID,19.4898,VALID,149,VALID,0,
2012-09-28, 00:56:04,VALID,919.022,VALID,0,VALID,96.1389,VALID,0,VALID,19.4703,VALID,149,VALID,0,
2012-09-28, 00:57:04,VALID,918.954,VALID,0,VALID,96.1618,VALID,0,VALID,19.4523,VALID,69,VALID,0,
2012-09-28, 00:58:04,VALID,918.962,VALID,0,VALID,96.2609,VALID,0,VALID,19.4313,VALID,63,VALID,0,
2012-09-28, 00:59:04,VALID,918.936,VALID,0,VALID,96.177,VALID,0,VALID,19.4508,VALID,33,VALID,0,
2012-09-28, 01:00:04,VALID,918.896,VALID,0,VALID,96.0703,VALID,0,VALID,19.4913,VALID,31,VALID,0,
2012-09-28, 01:01:04,VALID,918.917,VALID,0,VALID,95.9559,VALID,0,VALID,19.5108,VALID,31,VALID,0,
2012-09-28, 01:02:04,VALID,918.88,VALID,0,VALID,95.9483,VALID,0,VALID,19.4898,VALID,31,VALID,0,
2012-09-28, 01:03:04,VALID,918.826,VALID,0,VALID,95.9102,VALID,0,VALID,19.4703,VALID,40,VALID,0,
2012-09-28, 01:04:04,VALID,918.787,VALID,0,VALID,95.8416,VALID,0,VALID,19.4913,VALID,52,VALID,0,
2012-09-28, 01:05:04,VALID,918.799,VALID,0,VALID,95.7654,VALID,0,VALID,19.4913,VALID,52,VALID,0,
2012-09-28, 01:06:04,VALID,918.814,VALID,0,VALID,95.7577,VALID,0,VALID,19.4523,VALID,52,VALID,0,
2012-09-28, 01:07:04,VALID,918.844,VALID,0,VALID,95.7349,VALID,0,VALID,19.4118,VALID,52,VALID,0,
2012-09-28, 01:08:04,VALID,918.835,VALID,0,VALID,95.773,VALID,0,VALID,19.4327,VALID,52,VALID,0,
2012-09-28, 01:09:04,VALID,918.825,VALID,0,VALID,95.7654,VALID,0,VALID,19.4327,VALID,52,VALID,0,
2012-09-28, 01:10:04,VALID,918.812,VALID,0,VALID,95.7882,VALID,0,VALID,19.4327,VALID,52,VALID,0,
2012-09-28, 01:11:04,VALID,918.761,VALID,0,VALID,95.834,VALID,0,VALID,19.4327,VALID,52,VALID,0,
2012-09-28, 01:12:04,VALID,918.78,VALID,0,VALID,95.7501,VALID,0,VALID,19.4132,VALID,52,VALID,0,
2012-09-28, 01:13:04,VALID,918.787,VALID,0,VALID,95.8263,VALID,0,VALID,19.3937,VALID,52,VALID,0,
2012-09-28, 01:14:04,VALID,918.769,VALID,0,VALID,95.9026,VALID,0,VALID,19.3923,VALID,52,VALID,0,
2012-09-28, 01:15:04,VALID,918.708,VALID,0,VALID,95.9941,VALID,0.107441,VALID,19.3923,VALID,52,VALID,0,
2012-09-28, 01:16:04,VALID,918.739,VALID,0,VALID,96.0474,VALID,0,VALID,19.4132,VALID,52,VALID,0,
2012-09-28, 01:17:04,VALID,918.693,VALID,0,VALID,96.1313,VALID,0,VALID,19.3923,VALID,52,VALID,0,
2012-09-28, 01:18:04,VALID,918.655,VALID,0,VALID,96.0932,VALID,0,VALID,19.3937,VALID,52,VALID,0,
2012-09-28, 01:19:04,VALID,918.639,VALID,0,VALID,96.0779,VALID,0,VALID,19.3352,VALID,52,VALID,0,
2012-09-28, 01:20:04,VALID,918.62,VALID,0,VALID,96.1541,VALID,0,VALID,19.3352,VALID,52,VALID,0,
2012-09-28, 01:21:04,VALID,918.621,VALID,0,VALID,96.2151,VALID,0,VALID,19.2962,VALID,52,VALID,0,
2012-09-28, 01:22:04,VALID,918.634,VALID,0,VALID,96.2609,VALID,0,VALID,19.3172,VALID,52,VALID,0,
2012-09-28, 01:23:04,VALID,918.627,VALID,0,VALID,96.2685,VALID,0,VALID,19.2962,VALID,52,VALID,0,
2012-09-28, 01:24:04,VALID,918.661,VALID,0,VALID,96.3219,VALID,0,VALID,19.2767,VALID,52,VALID,0,
2012-09-28, 01:25:04,VALID,918.651,VALID,0,VALID,96.3447,VALID,0,VALID,19.2572,VALID,52,VALID,0,
2012-09-28, 01:26:04,VALID,918.67,VALID,0,VALID,96.3981,VALID,0,VALID,19.2572,VALID,52,VALID,0,
2012-09-28, 01:27:04,VALID,918.665,VALID,0,VALID,96.421,VALID,0,VALID,19.2377,VALID,52,VALID,0,
2012-09-28, 01:28:04,VALID,918.656,VALID,0,VALID,96.5048,VALID,0,VALID,19.2168,VALID,297,VALID,0,
2012-09-28, 01:29:04,VALID,918.657,VALID,0,VALID,96.5429,VALID,0,VALID,19.2377,VALID,297,VALID,0,
2012-09-28, 01:30:04,VALID,918.602,VALID,0,VALID,96.6115,VALID,0,VALID,19.2572,VALID,297,VALID,0,
2012-09-28, 01:31:04,VALID,918.592,VALID,0,VALID,96.5811,VALID,0,VALID,19.2572,VALID,297,VALID,0,
2012-09-28, 01:32:04,VALID,918.552,VALID,0,VALID,96.642,VALID,0,VALID,19.2767,VALID,297,VALID,0,
2012-09-28, 01:33:04,VALID,918.531,VALID,0,VALID,96.6573,VALID,0,VALID,19.2572,VALID,297,VALID,0,
2012-09-28, 01:34:04,VALID,918.528,VALID,0,VALID,96.6115,VALID,0,VALID,19.2572,VALID,354,VALID,0,
2012-09-28, 01:35:04,VALID,918.524,VALID,0,VALID,96.642,VALID,0,VALID,19.2168,VALID,354,VALID,0,
2012-09-28, 01:36:04,VALID,918.521,VALID,0,VALID,96.6573,VALID,0,VALID,19.2168,VALID,354,VALID,0,
2012-09-28, 01:37:04,VALID,918.527,VALID,0,VALID,96.6497,VALID,0,VALID,19.2572,VALID,354,VALID,0,
2012-09-28, 01:38:04,VALID,918.54,VALID,0,VALID,96.6954,VALID,0,VALID,19.2377,VALID,354,VALID,0,
2012-09-28, 01:39:04,VALID,918.567,VALID,0,VALID,96.703,VALID,0,VALID,19.2572,VALID,354,VALID,0,
2012-09-28, 01:40:04,VALID,918.529,VALID,0,VALID,96.6802,VALID,0,VALID,19.2182,VALID,354,VALID,0,
2012-09-28, 01:41:04,VALID,918.525,VALID,0,VALID,96.6497,VALID,0,VALID,19.1987,VALID,354,VALID,0,
2012-09-28, 01:42:04,VALID,918.514,VALID,0,VALID,96.6649,VALID,0,VALID,19.1792,VALID,354,VALID,0,
2012-09-28, 01:43:04,VALID,918.535,VALID,0,VALID,96.5887,VALID,0,VALID,19.1402,VALID,354,VALID,0,
2012-09-28, 01:44:04,VALID,918.515,VALID,0,VALID,96.5048,VALID,0,VALID,19.1012,VALID,335,VALID,0,
2012-09-28, 01:45:04,VALID,918.512,VALID,0,VALID,96.5582,VALID,0,VALID,19.1012,VALID,335,VALID,0,
2012-09-28, 01:46:04,VALID,918.529,VALID,0,VALID,96.5582,VALID,0,VALID,19.0803,VALID,335,VALID,0,
2012-09-28, 01:47:04,VALID,918.493,VALID,0,VALID,96.5353,VALID,0,VALID,19.1012,VALID,335,VALID,0,
2012-09-28, 01:48:04,VALID,918.525,VALID,0,VALID,96.5506,VALID,0,VALID,19.0803,VALID,335,VALID,0,
2012-09-28, 01:49:04,VALID,918.508,VALID,0,VALID,96.5506,VALID,0,VALID,19.1207,VALID,335,VALID,0,
2012-09-28, 01:50:04,VALID,918.482,VALID,0,VALID,96.5582,VALID,0,VALID,19.1207,VALID,335,VALID,0,
2012-09-28, 01:51:04,VALID,918.439,VALID,0,VALID,96.5582,VALID,0,VALID,19.1402,VALID,335,VALID,0,
2012-09-28, 01:52:04,VALID,918.454,VALID,0,VALID,96.5734,VALID,0,VALID,19.1402,VALID,335,VALID,0,
2012-09-28, 01:53:04,VALID,918.432,VALID,0,VALID,96.5277,VALID,0,VALID,19.1207,VALID,335,VALID,0,
2012-09-28, 01:54:04,VALID,918.411,VALID,0,VALID,96.4819,VALID,0,VALID,19.0817,VALID,335,VALID,0,
2012-09-28, 01:55:04,VALID,918.442,VALID,0,VALID,96.4743,VALID,0,VALID,19.0817,VALID,335,VALID,0,
2012-09-28, 01:56:04,VALID,918.413,VALID,0,VALID,96.4896,VALID,0,VALID,19.0817,VALID,335,VALID,0,
2012-09-28, 01:57:04,VALID,918.446,VALID,0,VALID,96.4667,VALID,0,VALID,19.0622,VALID,335,VALID,0,
2012-09-28, 01:58:04,VALID,918.411,VALID,0,VALID,96.4133,VALID,0,VALID,19.0232,VALID,335,VALID,0,
2012-09-28, 01:59:04,VALID,918.419,VALID,0,VALID,96.421,VALID,0,VALID,19.0037,VALID,335,VALID,0,
2012-09-28, 02:00:04,VALID,918.408,VALID,0,VALID,96.3752,VALID,0,VALID,18.9647,VALID,335,VALID,0,
2012-09-28, 02:01:04,VALID,918.368,VALID,0,VALID,96.3066,VALID,0,VALID,18.9257,VALID,335,VALID,0,
2012-09-28, 02:02:04,VALID,918.38,VALID,0,VALID,96.3219,VALID,0,VALID,18.8853,VALID,335,VALID,0,
2012-09-28, 02:03:04,VALID,918.395,VALID,0,VALID,96.3752,VALID,0,VALID,18.8672,VALID,336,VALID,0,
2012-09-28, 02:04:04,VALID,918.378,VALID,0,VALID,96.4057,VALID,0,VALID,18.8477,VALID,335,VALID,0,
2012-09-28, 02:05:04,VALID,918.386,VALID,0,VALID,96.421,VALID,0,VALID,18.8477,VALID,336,VALID,0,
2012-09-28, 02:06:04,VALID,918.394,VALID,0,VALID,96.4362,VALID,0,VALID,18.8477,VALID,336,VALID,0,
2012-09-28, 02:07:04,VALID,918.37,VALID,0,VALID,96.4286,VALID,0,VALID,18.8477,VALID,336,VALID,0,
2012-09-28, 02:08:04,VALID,918.42,VALID,0,VALID,96.4515,VALID,0,VALID,18.8282,VALID,336,VALID,0,
2012-09-28, 02:09:04,VALID,918.383,VALID,0,VALID,96.3752,VALID,0,VALID,18.8282,VALID,336,VALID,0,
2012-09-28, 02:10:04,VALID,918.383,VALID,0,VALID,96.3676,VALID,0,VALID,18.8087,VALID,336,VALID,0,
2012-09-28, 02:11:04,VALID,918.387,VALID,0,VALID,96.3447,VALID,0,VALID,18.7892,VALID,336,VALID,0,
2012-09-28, 02:12:04,VALID,918.362,VALID,0,VALID,96.36,VALID,0,VALID,18.7892,VALID,336,VALID,0,
2012-09-28, 02:13:04,VALID,918.375,VALID,0,VALID,96.4057,VALID,0,VALID,18.7892,VALID,336,VALID,0,
2012-09-28, 02:14:04,VALID,918.356,VALID,0,VALID,96.4057,VALID,0,VALID,18.7697,VALID,336,VALID,0,
2012-09-28, 02:15:04,VALID,918.36,VALID,0,VALID,96.3676,VALID,0,VALID,18.7697,VALID,336,VALID,0,
2012-09-28, 02:16:04,VALID,918.377,VALID,0,VALID,96.2914,VALID,0,VALID,18.7308,VALID,336,VALID,0,
2012-09-28, 02:17:04,VALID,918.35,VALID,0,VALID,96.3295,VALID,0,VALID,18.7113,VALID,336,VALID,0,
2012-09-28, 02:18:04,VALID,918.333,VALID,0,VALID,96.3752,VALID,0,VALID,18.6708,VALID,336,VALID,0,
2012-09-28, 02:19:04,VALID,918.322,VALID,0,VALID,96.3981,VALID,0,VALID,18.6723,VALID,336,VALID,0,
2012-09-28, 02:20:04,VALID,918.339,VALID,0,VALID,96.4362,VALID,0,VALID,18.6723,VALID,336,VALID,0,
2012-09-28, 02:21:04,VALID,918.302,VALID,0,VALID,96.4743,VALID,0,VALID,18.6723,VALID,336,VALID,0,
2012-09-28, 02:22:04,VALID,918.326,VALID,0,VALID,96.5811,VALID,0,VALID,18.6918,VALID,336,VALID,0,
2012-09-28, 02:23:04,VALID,918.329,VALID,0,VALID,96.5506,VALID,0,VALID,18.6918,VALID,336,VALID,0,
2012-09-28, 02:24:04,VALID,918.306,VALID,0,VALID,96.5811,VALID,0,VALID,18.7113,VALID,336,VALID,0,
2012-09-28, 02:25:04,VALID,918.276,VALID,0,VALID,96.6039,VALID,0,VALID,18.7113,VALID,336,VALID,0,
2012-09-28, 02:26:04,VALID,918.289,VALID,0,VALID,96.5353,VALID,0,VALID,18.7113,VALID,336,VALID,0,
2012-09-28, 02:27:04,VALID,918.215,VALID,0,VALID,96.5201,VALID,0,VALID,18.6528,VALID,336,VALID,0,
2012-09-28, 02:28:04,VALID,918.214,VALID,0,VALID,96.5734,VALID,0,VALID,18.6333,VALID,336,VALID,0,
2012-09-28, 02:29:04,VALID,918.186,VALID,0,VALID,96.6649,VALID,0,VALID,18.6723,VALID,336,VALID,0,
2012-09-28, 02:30:04,VALID,918.124,VALID,0,VALID,96.6878,VALID,0,VALID,18.6918,VALID,336,VALID,0,
2012-09-28, 02:31:04,VALID,918.121,VALID,0,VALID,96.6802,VALID,0,VALID,18.6918,VALID,336,VALID,0,
2012-09-28, 02:32:04,VALID,918.056,VALID,0,VALID,96.7564,VALID,0.107441,VALID,18.7113,VALID,336,VALID,0,
2012-09-28, 02:33:04,VALID,918.065,VALID,0,VALID,96.7335,VALID,0,VALID,18.7113,VALID,336,VALID,0,
2012-09-28, 02:34:04,VALID,918.007,VALID,0,VALID,96.7335,VALID,0,VALID,18.6918,VALID,336,VALID,0,
2012-09-28, 02:35:04,VALID,917.993,VALID,0,VALID,96.7411,VALID,0,VALID,18.7113,VALID,336,VALID,0,
2012-09-28, 02:36:04,VALID,918.009,VALID,0,VALID,96.764,VALID,0,VALID,18.7308,VALID,336,VALID,0,
2012-09-28, 02:37:04,VALID,917.988,VALID,0,VALID,96.7793,VALID,0,VALID,18.7322,VALID,336,VALID,0,
2012-09-28, 02:38:04,VALID,917.95,VALID,0,VALID,96.7793,VALID,0,VALID,18.7113,VALID,336,VALID,0,
2012-09-28, 02:39:04,VALID,917.929,VALID,0,VALID,96.7945,VALID,0,VALID,18.7113,VALID,336,VALID,0,
2012-09-28, 02:40:04,VALID,917.944,VALID,0,VALID,96.7945,VALID,0,VALID,18.7113,VALID,336,VALID,0,
2012-09-28, 02:41:04,VALID,917.934,VALID,0,VALID,96.8021,VALID,0,VALID,18.7113,VALID,336,VALID,0,
2012-09-28, 02:42:04,VALID,917.969,VALID,0,VALID,96.8174,VALID,0,VALID,18.7308,VALID,336,VALID,0,
2012-09-28, 02:43:04,VALID,917.938,VALID,0,VALID,96.8326,VALID,0,VALID,18.7113,VALID,336,VALID,0,
2012-09-28, 02:44:04,VALID,917.925,VALID,0,VALID,96.8174,VALID,0,VALID,18.6918,VALID,336,VALID,0,
2012-09-28, 02:45:04,VALID,917.923,VALID,0,VALID,96.8326,VALID,0,VALID,18.6918,VALID,336,VALID,0,
2012-09-28, 02:46:04,VALID,917.886,VALID,0,VALID,96.8555,VALID,0,VALID,18.7113,VALID,336,VALID,0,
2012-09-28, 02:47:04,VALID,917.873,VALID,0,VALID,96.8631,VALID,0,VALID,18.7308,VALID,336,VALID,0,
2012-09-28, 02:48:04,VALID,917.878,VALID,0,VALID,96.8936,VALID,0,VALID,18.7308,VALID,336,VALID,0,
2012-09-28, 02:49:04,VALID,917.873,VALID,0,VALID,96.886,VALID,0,VALID,18.7503,VALID,336,VALID,0,
2012-09-28, 02:50:04,VALID,917.886,VALID,0,VALID,96.9089,VALID,0,VALID,18.7503,VALID,336,VALID,0,
2012-09-28, 02:51:04,VALID,917.897,VALID,0,VALID,96.9165,VALID,0,VALID,18.7503,VALID,336,VALID,0,
2012-09-28, 02:52:04,VALID,917.85,VALID,0,VALID,96.9241,VALID,0,VALID,18.7892,VALID,336,VALID,0,
2012-09-28, 02:53:04,VALID,917.842,VALID,0,VALID,96.9089,VALID,0,VALID,18.7308,VALID,336,VALID,0,
2012-09-28, 02:54:04,VALID,917.813,VALID,0,VALID,96.8936,VALID,0,VALID,18.6918,VALID,336,VALID,0,
2012-09-28, 02:55:04,VALID,917.807,VALID,0,VALID,96.9012,VALID,0,VALID,18.6723,VALID,336,VALID,0,
2012-09-28, 02:56:04,VALID,917.767,VALID,0,VALID,96.8936,VALID,0,VALID,18.6528,VALID,336,VALID,0,
2012-09-28, 02:57:04,VALID,917.801,VALID,0,VALID,96.9089,VALID,0,VALID,18.6542,VALID,336,VALID,0,
2012-09-28, 02:58:04,VALID,917.796,VALID,0,VALID,96.8936,VALID,0,VALID,18.6347,VALID,336,VALID,0,
2012-09-28, 02:59:04,VALID,917.794,VALID,0,VALID,96.9089,VALID,0,VALID,18.5957,VALID,336,VALID,0,
2012-09-28, 03:00:04,VALID,917.82,VALID,0,VALID,96.9241,VALID,0.107441,VALID,18.5748,VALID,336,VALID,0,
2012-09-28, 03:01:04,VALID,917.831,VALID,0,VALID,96.947,VALID,0,VALID,18.5762,VALID,336,VALID,0,
2012-09-28, 03:02:04,VALID,917.823,VALID,0,VALID,96.9775,VALID,0,VALID,18.5748,VALID,336,VALID,0,
2012-09-28, 03:03:04,VALID,917.796,VALID,0,VALID,96.9775,VALID,0,VALID,18.5762,VALID,336,VALID,0,
2012-09-28, 03:04:04,VALID,917.783,VALID,0,VALID,96.9851,VALID,0,VALID,18.5553,VALID,336,VALID,0,
2012-09-28, 03:05:04,VALID,917.783,VALID,0,VALID,97.0003,VALID,0,VALID,18.5553,VALID,336,VALID,0,
2012-09-28, 03:06:04,VALID,917.791,VALID,0,VALID,97.0003,VALID,0,VALID,18.5163,VALID,336,VALID,0,
2012-09-28, 03:07:04,VALID,917.778,VALID,0,VALID,96.9927,VALID,0,VALID,18.5372,VALID,336,VALID,0,
2012-09-28, 03:08:04,VALID,917.763,VALID,0,VALID,97.008,VALID,0,VALID,18.4982,VALID,336,VALID,0,
2012-09-28, 03:09:04,VALID,917.768,VALID,0,VALID,96.9927,VALID,0,VALID,18.4578,VALID,336,VALID,0,
2012-09-28, 03:10:04,VALID,917.753,VALID,0,VALID,97.008,VALID,0,VALID,18.4383,VALID,336,VALID,0,
2012-09-28, 03:11:04,VALID,917.765,VALID,0,VALID,97.0156,VALID,0,VALID,18.4383,VALID,336,VALID,0,
2012-09-28, 03:12:04,VALID,917.773,VALID,0,VALID,97.0308,VALID,0,VALID,18.4383,VALID,336,VALID,0,
2012-09-28, 03:13:04,VALID,917.743,VALID,0,VALID,97.0842,VALID,0,VALID,18.4578,VALID,336,VALID,0,
2012-09-28, 03:14:04,VALID,917.73,VALID,0,VALID,97.0918,VALID,0,VALID,18.4982,VALID,336,VALID,0,
2012-09-28, 03:15:04,VALID,917.738,VALID,0,VALID,97.0842,VALID,0,VALID,18.4383,VALID,336,VALID,0,
2012-09-28, 03:16:04,VALID,917.753,VALID,0,VALID,97.0766,VALID,0,VALID,18.3798,VALID,336,VALID,0,
2012-09-28, 03:17:04,VALID,917.747,VALID,0,VALID,97.0537,VALID,0,VALID,18.3603,VALID,336,VALID,0,
2012-09-28, 03:18:04,VALID,917.75,VALID,0,VALID,97.0613,VALID,0,VALID,18.3408,VALID,336,VALID,0,
2012-09-28, 03:19:04,VALID,917.766,VALID,0,VALID,97.0994,VALID,0,VALID,18.3603,VALID,336,VALID,0,
2012-09-28, 03:20:04,VALID,917.735,VALID,0,VALID,97.0994,VALID,0,VALID,18.3603,VALID,336,VALID,0,
2012-09-28, 03:21:04,VALID,917.711,VALID,0,VALID,97.1147,VALID,0,VALID,18.3798,VALID,336,VALID,0,
2012-09-28, 03:22:04,VALID,917.716,VALID,0,VALID,97.1376,VALID,0,VALID,18.4007,VALID,336,VALID,0,
2012-09-28, 03:23:04,VALID,917.727,VALID,0,VALID,97.1376,VALID,0,VALID,18.3993,VALID,336,VALID,0,
2012-09-28, 03:24:04,VALID,917.711,VALID,0,VALID,97.1376,VALID,0,VALID,18.3993,VALID,336,VALID,0,
2012-09-28, 03:25:04,VALID,917.723,VALID,0,VALID,97.1452,VALID,0,VALID,18.3603,VALID,336,VALID,0,
2012-09-28, 03:26:04,VALID,917.739,VALID,0,VALID,97.1604,VALID,0,VALID,18.3603,VALID,336,VALID,0,
2012-09-28, 03:27:04,VALID,917.745,VALID,0,VALID,97.1604,VALID,0,VALID,18.3603,VALID,336,VALID,0,
2012-09-28, 03:28:04,VALID,917.713,VALID,0,VALID,97.1757,VALID,0,VALID,18.4202,VALID,336,VALID,0,
2012-09-28, 03:29:04,VALID,917.692,VALID,0,VALID,97.2062,VALID,0,VALID,18.3993,VALID,336,VALID,0,
2012-09-28, 03:30:04,VALID,917.696,VALID,0,VALID,97.1986,VALID,0,VALID,18.4188,VALID,337,VALID,0,
2012-09-28, 03:31:04,VALID,917.665,VALID,0,VALID,97.2062,VALID,0,VALID,18.4383,VALID,338,VALID,0,
2012-09-28, 03:32:04,VALID,917.661,VALID,0,VALID,97.2214,VALID,0,VALID,18.4397,VALID,50,VALID,0,
2012-09-28, 03:33:04,VALID,917.636,VALID,0,VALID,97.2519,VALID,0,VALID,18.4773,VALID,76,VALID,0,
2012-09-28, 03:34:04,VALID,917.611,VALID,0,VALID,97.2443,VALID,0,VALID,18.5163,VALID,146,VALID,0,
2012-09-28, 03:35:04,VALID,917.594,VALID,0,VALID,97.2367,VALID,0,VALID,18.5358,VALID,146,VALID,0,
2012-09-28, 03:36:04,VALID,917.575,VALID,0,VALID,97.2672,VALID,0,VALID,18.5553,VALID,146,VALID,0,
2012-09-28, 03:37:04,VALID,917.555,VALID,0,VALID,97.2595,VALID,0,VALID,18.5358,VALID,140,VALID,0,
2012-09-28, 03:38:04,VALID,917.526,VALID,0,VALID,97.2519,VALID,0,VALID,18.5553,VALID,140,VALID,0,
2012-09-28, 03:39:04,VALID,917.511,VALID,0,VALID,97.2595,VALID,0,VALID,18.5163,VALID,140,VALID,0,
2012-09-28, 03:40:04,VALID,917.494,VALID,0,VALID,97.2519,VALID,0,VALID,18.4773,VALID,129,VALID,0,
2012-09-28, 03:41:04,VALID,917.498,VALID,0,VALID,97.2748,VALID,0,VALID,18.4773,VALID,127,VALID,0,
2012-09-28, 03:42:04,VALID,917.516,VALID,0,VALID,97.2595,VALID,0,VALID,18.4968,VALID,127,VALID,0,
2012-09-28, 03:43:04,VALID,917.559,VALID,0,VALID,97.29,VALID,0,VALID,18.4968,VALID,127,VALID,0,
2012-09-28, 03:44:04,VALID,917.531,VALID,0,VALID,97.2824,VALID,0,VALID,18.4968,VALID,131,VALID,0,
2012-09-28, 03:45:04,VALID,917.547,VALID,0,VALID,97.29,VALID,0,VALID,18.4982,VALID,131,VALID,0,
2012-09-28, 03:46:04,VALID,917.515,VALID,0,VALID,97.29,VALID,0,VALID,18.4968,VALID,131,VALID,0,
2012-09-28, 03:47:04,VALID,917.508,VALID,0,VALID,97.2977,VALID,0,VALID,18.4773,VALID,131,VALID,0,
2012-09-28, 03:48:04,VALID,917.507,VALID,0,VALID,97.3053,VALID,0,VALID,18.4383,VALID,131,VALID,0,
2012-09-28, 03:49:04,VALID,917.488,VALID,0,VALID,97.2824,VALID,0,VALID,18.3993,VALID,131,VALID,0,
2012-09-28, 03:50:04,VALID,917.505,VALID,0,VALID,97.2977,VALID,0,VALID,18.3993,VALID,128,VALID,0,
2012-09-28, 03:51:04,VALID,917.521,VALID,0,VALID,97.3053,VALID,0,VALID,18.3603,VALID,126,VALID,0,
2012-09-28, 03:52:04,VALID,917.491,VALID,0,VALID,97.3053,VALID,0,VALID,18.3617,VALID,126,VALID,0,
2012-09-28, 03:53:04,VALID,917.499,VALID,0,VALID,97.3205,VALID,0,VALID,18.3018,VALID,126,VALID,0,
2012-09-28, 03:54:04,VALID,917.503,VALID,0,VALID,97.2977,VALID,0,VALID,18.3018,VALID,126,VALID,0,
2012-09-28, 03:55:04,VALID,917.478,VALID,0,VALID,97.3205,VALID,0,VALID,18.2823,VALID,126,VALID,0,
2012-09-28, 03:56:04,VALID,917.521,VALID,0,VALID,97.3434,VALID,0,VALID,18.3018,VALID,126,VALID,0,
2012-09-28, 03:57:04,VALID,917.497,VALID,0,VALID,97.3739,VALID,0,VALID,18.3018,VALID,126,VALID,0,
2012-09-28, 03:58:04,VALID,917.55,VALID,0,VALID,97.351,VALID,0,VALID,18.3227,VALID,126,VALID,0,
2012-09-28, 03:59:04,VALID,917.532,VALID,0,VALID,97.3739,VALID,0,VALID,18.3018,VALID,126,VALID,0,
2012-09-28, 04:00:04,VALID,917.551,VALID,0,VALID,97.3663,VALID,0,VALID,18.3213,VALID,126,VALID,0,